CAPE
0 1 0 2 1 0 0 0 0 0 0 0 0 0 2 2 0 0 0 0 0 0 0 0 0 0 0 0 0 0 0 0 0 0 0 0 1 1 20 6 10 32 38 51 96 136 90 361 418 203 654 1142 1729 1562
0 0 0 0 0 0 0 0 0 0 0 0 0 0 0 2 1 0 0 0 0 0 0 0 0 0 0 0 0 0 0 0 0 0 0 0 0 3 0 0 85 40 130 137 229 264 492 470 538 767 907 1287 1529 1584
0 0 0 0 0 0 0 1 1 0 0 1 0 0 0 0 1 0 0 0 0 0 0 0 0 0 0 0 0 0 0 0 0 0 0 0 0 0 0 48 42 107 67 207 432 450 200 207 497 656 1072 2226 1685 1829
0 0 0 0 0 0 0 0 0 0 0 0 0 0 0 0 1 0 0 0 0 0 0 0 0 0 0 0 0 0 0 0 0 0 0 0 0 0 0 27 33 133 13 273 252 431 191 345 307 245 313 940 1747 2176
1 1 1 1 1 1 0 0 0 0 0 0 0 0 0 0 0 0 0 0 0 0 0 0 0 0 0 0 0 0 0 0 0 0 0 0 0 0 0 0 0 0 93 50 95 20 51 74 24 19 356 675 2059 2084
1 1 1 1 1 1 1 0 0 0 0 0 0 0 0 1 0 0 0 0 0 0 0 0 0 0 0 0 0 0 0 0 0 0 0 0 0 0 0 0 0 2 34 37 14 14 22 54 81 698 711 1165 2012 1948
1 1 1 1 0 1 1 0 0 0 0 0 0 0 0 0 0 0 0 0 0 0 0 0 0 0 0 0 0 0 0 0 0 6 0 0 3 0 0 5 50 130 168 222 180 118 92 377 498 126 709 1632 1703 1817
0 0 1 0 1 1 1 0 0 0 0 0 0 0 0 0 0 0 0 0 0 0 0 0 0 0 0 1 3 0 1 0 0 0 0 0 2 5 2 201 252 277 329 351 317 255 258 191 252 379 1096 1667 1770 1453
1 0 0 1 1 1 0 0 0 0 0 0 0 0 0 0 0 0 0 0 0 0 0 0 0 1 0 0 0 0 0 0 0 0 8 0 1 16 211 233 365 362 382 379 318 330 327 308 398 494 1026 1439 1747 1314
1 0 0 0 1 1 0 0 0 0 0 0 0 0 1 0 0 0 0 0 1 0 0 0 0 0 0 0 0 0 0 0 0 4 0 1 32 70 148 269 327 298 352 399 403 372 319 408 293 491 807 1308 1496 1301
0 1 0 0 0 2 1 0 0 0 0 0 0 0 0 0 0 0 1 3 16 6 0 0 0 7 0 0 7 0 2 0 1 8 6 28 126 112 53 46 112 230 184 307 399 430 503 426 357 500 826 1027 1092 923
0 1 0 0 0 0 0 0 0 0 0 0 0 1 0 0 0 5 12 10 1 11 0 0 1 0 0 0 4 3 5 0 8 0 5 26 139 29 0 0 0 152 158 192 386 427 453 395 465 665 902 870 811 670
1 0 0 0 0 0 0 0 0 0 0 1 1 0 0 0 1 1 0 7 3 0 0 0 2 0 0 0 13 2 2 8 0 12 31 137 54 18 17 0 6 182 179 201 399 389 391 459 460 715 688 490 303 191
1 0 0 0 0 0 0 0 0 0 0 0 0 0 0 0 0 0 0 7 2 0 0 0 6 8 0 6 17 12 24 0 27 22 44 19 96 24 73 21 23 57 253 251 310 324 268 330 467 500 532 319 278 64
1 0 0 0 0 0 0 0 0 0 0 0 0 0 0 0 0 0 0 0 2 4 14 13 24 12 12 14 12 18 18 27 33 13 9 6 6 88 56 32 9 20 140 210 282 245 176 94 10 1 3 39 77 73
2 0 0 0 0 0 0 0 0 0 0 0 0 0 0 0 0 0 0 10 19 19 22 40 28 1 18 18 19 19 19 24 31 22 18 0 13 58 10 8 10 60 261 319 355 406 197 8 16 8 11 53 73 51
3 0 0 0 0 0 0 0 0 0 0 0 0 0 0 0 0 0 0 0 4 32 52 42 9 5 6 4 12 21 31 25 17 24 19 124 39 64 12 12 116 171 329 338 315 429 274 139 13 71 40 25 99 170
2 1 0 0 0 3 5 0 0 0 0 0 0 0 0 0 0 0 0 0 5 33 52 35 22 2 3 0 1 17 28 34 33 22 2 75 140 27 18 67 188 292 385 443 243 34 4 18 14 42 70 162 129 44
2 2 3 0 1 2 1 0 0 1 0 0 0 0 0 0 0 0 0 0 0 0 6 22 21 15 18 12 5 27 39 49 51 29 10 62 14 29 67 113 184 256 334 249 88 9 16 17 66 35 119 128 75 28
4 4 1 0 3 1 1 1 0 1 2 7 0 0 0 0 0 0 0 1 5 9 11 20 16 32 26 18 24 21 36 74 23 13 1 7 8 80 102 96 50 163 255 3 1 0 13 27 55 35 80 44 41 34
2 0 0 2 0 1 1 0 0 0 1 13 9 0 0 0 0 0 1 5 17 0 5 27 52 40 36 39 36 53 87 64 22 2 0 5 0 18 42 70 134 82 95 63 22 35 13 56 82 76 44 56 53 43
1 3 2 1 1 1 1 0 0 0 0 0 0 0 0 0 2 7 7 6 0 0 0 0 19 46 69 73 70 42 122 65 55 0 0 0 2 14 28 33 71 56 69 74 96 100 83 64 45 36 42 37 17 25
1 1 1 1 1 1 0 3 1 0 0 0 7 6 7 7 7 0 0 0 0 0 0 0 0 22 45 83 199 209 123 35 5 6 0 1 0 0 8 21 32 45 49 30 39 43 48 17 20 36 34 17 25 35
1 4 0 1 1 1 3 2 0 8 9 9 5 1 3 8 20 18 13 10 12 68 6 0 0 0 2 47 92 187 25 12 0 15 14 10 16 18 20 42 47 39 38 39 38 40 48 44 30 12 19 10 12 40
2 0 2 1 2 2 1 4 6 10 8 6 6 0 7 7 2 5 14 37 89 85 155 179 13 1 0 15 89 212 22 0 0 2 7 7 19 24 34 36 38 37 38 48 49 46 43 37 35 19 11 17 34 33
0 2 1 2 3 1 3 4 5 6 5 5 2 0 2 21 10 15 16 44 144 181 212 248 281 184 166 185 157 20 3 0 0 1 11 2 1 27 58 71 52 50 23 26 37 32 15 13 14 0 2 0 0 12
0 1 2 0 2 3 3 6 4 6 6 8 7 17 11 19 15 19 7 4 35 9 61 232 300 340 144 19 2 0 0 0 0 0 15 34 32 30 35 44 91 118 78 53 27 21 8 0 1 0 2 27 43 37
3 4 2 1 0 0 4 8 7 2 1 3 1 13 16 23 28 3 0 0 0 0 0 16 111 258 151 1 0 0 0 0 0 19 54 65 65 67 82 76 101 34 58 63 29 22 17 8 3 4 9 17 26 25
2 2 3 2 3 1 1 3 1 0 0 0 1 2 5 0 8 0 0 0 0 0 3 70 135 172 234 256 116 44 40 53 59 81 109 72 53 89 140 138 113 109 49 4 0 0 9 2 1 4 9 9 16 31
5 1 3 3 5 2 1 0 0 0 0 0 0 0 0 0 0 0 0 0 0 0 0 0 0 130 159 33 7 29 36 55 69 79 91 69 67 54 95 111 110 93 44 0 0 0 0 0 0 0 0 0 0 0
2 1 3 1 3 1 2 5 4 1 0 0 0 0 0 0 0 0 0 0 0 0 0 0 5 49 170 152 14 13 18 27 38 64 67 51 43 52 71 163 171 148 53 0 0 0 0 0 0 0 0 0 0 0
7 4 3 3 0 2 0 0 0 0 0 0 0 0 0 0 0 0 0 0 0 0 0 0 0 16 45 57 105 105 21 51 31 24 52 124 107 119 220 254 229 159 85 14 0 0 0 0 0 0 0 0 1 4
3 3 4 5 1 0 0 0 0 0 0 0 0 0 0 0 0 0 0 0 0 0 0 0 31 45 25 16 6 11 2 28 36 0 0 0 0 0 6 155 213 168 102 56 14 1 0 0 0 0 1 8 17 27
CIN
0 -7 0 -1 -2 0 0 0 0 0 0 0 0 0 0 0 0 0 0 0 0 0 0 0 0 0 0 0 0 0 0 0 0 0 0 0 -1 -1 -6 -2 -3 -5 -5 -6 -9 -6 -7 -67 -37 -38 -55 -81 -30 -62
0 0 0 0 -1 0 0 0 0 0 0 0 0 0 0 0 -1 0 0 0 0 0 0 0 0 0 0 0 0 0 0 0 0 0 0 0 0 -2 0 -1 -22 -3 -3 -6 -7 -4 -49 -59 -52 -53 -75 -44 -14 -50
0 0 0 0 0 0 0 0 0 0 0 0 0 0 0 0 0 0 0 0 0 0 0 0 0 0 0 0 0 0 0 0 0 0 0 0 0 0 0 -2 -9 -18 -72 -17 -13 -5 -45 -42 -56 -49 -48 -1 -28 -47
0 0 0 0 0 0 0 0 0 0 0 0 0 0 0 0 0 0 0 0 0 0 0 0 0 0 0 0 0 0 0 0 0 0 0 0 0 0 0 -3 -25 -15 -58 -14 -41 -29 -66 -36 -81 -116 -116 -52 -19 -37
0 0 0 0 0 0 0 0 0 0 0 0 0 0 0 0 0 0 0 0 0 0 0 0 0 0 0 0 0 0 0 0 0 0 0 0 0 0 0 0 0 0 -45 -52 -58 -154 -133 -125 -131 -186 -113 -64 -1 -25
0 0 0 0 0 0 0 0 0 0 0 0 0 0 0 0 0 0 0 0 0 0 0 0 0 0 0 0 0 0 0 0 0 0 -2 0 0 0 0 0 0 -29 -100 -120 -127 -176 -174 -141 -122 -34 -50 -33 0 -8
0 0 0 0 0 0 0 0 0 0 0 0 0 0 0 0 0 0 0 0 0 0 0 0 0 0 0 0 0 0 0 0 0 -2 0 0 -1 0 0 -3 -12 -22 -26 -43 -51 -82 -38 -31 -38 -107 -73 -37 -49 -35
0 0 -1 -1 0 0 0 0 0 0 0 0 0 0 0 0 0 0 0 0 0 0 0 0 0 0 0 0 -2 0 -2 0 0 0 0 0 -2 -2 -2 -16 -21 -25 -46 -23 -34 -49 -40 -69 -89 -71 -72 -57 -27 -50
0 0 0 -1 -1 0 0 0 0 0 0 0 0 0 0 0 0 0 0 0 0 0 0 0 0 -1 0 0 0 0 0 0 -1 0 -2 0 -2 -2 -6 -17 -9 -34 -39 -45 -56 -41 -22 -45 -56 -81 -73 -45 -5 -48
0 0 0 0 -1 -1 0 0 0 0 0 0 0 0 -1 0 0 0 0 0 0 0 0 0 0 0 0 0 0 0 0 0 0 -4 0 -2 -17 -17 -2 -5 -12 -24 -28 -34 -34 -27 -39 -45 -56 -75 -67 -26 -10 -29
0 0 0 0 0 0 0 0 0 0 0 0 0 0 0 0 0 0 0 0 0 0 0 0 0 -1 0 0 -2 0 -1 0 -1 -3 -1 -7 -2 -1 -12 -21 -13 -9 -18 -13 -14 -27 -35 -58 -77 -71 -53 -43 -32 -54
0 0 0 0 0 0 0 0 0 0 0 0 0 0 0 0 0 0 0 0 0 -1 0 0 -1 0 0 0 -1 -1 -1 0 -1 -4 -1 -1 -6 -16 0 0 0 -8 -14 -20 -11 -23 -36 -56 -71 -49 -26 -24 -32 -72
0 0 0 0 0 0 0 0 0 0 0 0 0 0 0 0 0 0 0 -1 0 0 0 0 -1 0 0 0 -1 0 0 -1 0 -1 -6 -2 -7 -28 -53 -28 -121 -4 -8 -4 0 -3 -13 -21 -45 -11 -17 -44 -95 -112
0 0 0 0 0 0 0 0 0 0 0 0 0 0 0 0 0 0 0 -1 0 0 0 0 -2 -1 0 -1 0 0 -2 0 0 -1 -7 -2 -4 -22 -6 -86 -99 -52 -5 -8 -3 -2 -3 -3 0 -3 -1 -17 -38 -86
0 0 0 0 0 0 0 0 0 0 0 0 0 0 0 0 0 0 0 0 -5 -29 -20 -11 -9 -5 -1 -1 -1 -1 -1 -1 -1 -2 -3 -2 -9 -6 -8 -47 -7 -32 -8 0 0 -2 -2 -22 -93 -8 -68 -23 -19 -52
0 0 0 0 0 0 0 0 0 0 0 0 0 0 0 0 0 0 0 -13 -35 -33 -30 -11 -1 -1 -1 -1 -1 -1 -1 -1 -2 -2 -1 0 -4 -11 -19 -12 -13 -7 0 0 0 0 -2 -30 -8 -4 -21 -3 -14 -48
0 0 0 0 0 0 0 0 0 0 0 0 0 0 0 0 0 0 0 -1 -83 -32 -1 -1 -1 -1 -1 -1 0 -1 -1 -2 -1 -2 -1 -12 -12 -15 -14 -16 -7 -1 0 0 -1 -1 -1 -2 -72 0 -6 -20 -5 -7
0 0 0 -1 0 -1 0 0 0 0 0 0 0 0 0 0 0 0 0 0 -60 -27 -26 -2 -2 -1 -1 -1 -1 -1 -1 -2 -2 -5 -1 -3 -12 -19 -18 -11 -4 0 -1 0 -5 -58 -63 -29 -7 -1 -8 -5 -2 -19
0 0 0 0 0 0 0 0 0 0 0 0 -1 0 0 0 0 0 0 0 0 0 -67 -20 -2 -2 -3 -2 -2 -1 -2 -1 -2 -4 -8 -17 -18 -14 -11 -8 0 0 -4 -1 -10 -11 -18 -27 -6 -9 -8 -6 -1 -15
0 0 0 0 0 0 0 0 0 0 0 -1 0 0 0 0 0 0 0 -54 -85 -56 -26 -12 -3 -3 -2 -2 -3 -2 -2 -5 -14 -6 -1 -1 -4 -10 -5 -4 -1 -8 0 -18 -4 -8 -38 -27 -2 -2 -2 -12 -12 -3
0 0 0 0 0 0 0 0 0 0 0 0 -1 -1 0 0 0 0 -48 -39 -40 -2 -6 -2 -3 -5 -3 -3 -3 -7 -12 -21 -11 -5 0 -1 0 -1 -1 -1 -3 -1 -4 -5 -14 -22 -47 -13 0 -2 -4 -1 -1 -1
0 0 0 0 0 0 0 0 0 0 0 0 0 0 0 0 -6 -6 -22 -38 0 0 0 0 -2 -1 -2 -11 -10 -36 -29 -46 -31 0 0 0 -1 -2 -1 0 -2 -1 0 -1 0 0 -1 -1 -1 -1 -1 -1 -8 -1
0 0 0 0 0 0 0 -1 0 0 0 0 0 0 -1 -1 -5 0 -2 0 0 0 0 0 0 -5 -4 -8 -20 -37 -53 -41 -13 -3 0 -2 0 0 -2 -1 -1 -1 -1 -2 -2 -1 -2 -2 -11 -2 -2 -3 -2 -2
0 0 0 0 0 0 0 0 0 0 0 0 0 -1 -1 0 -6 -10 -7 -3 -3 -23 -15 0 0 0 -4 -25 -15 -24 -51 -36 0 -3 -7 -2 0 -1 -1 -2 -2 -2 -2 -2 -2 -2 -2 -1 -3 -3 -3 -1 -1 -2
0 0 0 0 0 0 0 0 0 0 0 -1 -1 0 0 -4 -1 -1 -1 -1 -5 -3 -7 -24 -24 -1 0 -2 -14 -7 -34 0 0 -1 -4 -8 -2 -2 -1 -1 -2 -1 -3 -1 -1 -2 -3 -3 -3 -1 -3 -3 -1 -2
0 0 0 0 0 0 0 0 -1 -1 -1 -1 -1 0 -4 -3 0 -1 -7 -17 -8 -10 -14 -5 -3 -3 -12 -9 -8 -8 -13 0 0 -1 -3 -5 -1 -1 -2 -2 -2 -9 -7 -4 -3 -1 -1 -2 -2 0 -2 0 0 -13
0 0 0 0 0 0 0 0 0 0 -1 -2 -6 -2 -4 0 -1 -5 -28 -20 -7 -16 -68 -55 -32 -6 -10 -34 -3 0 0 0 0 0 -4 -4 -7 -6 -3 -5 -1 -2 -2 -9 -9 -4 -2 0 -1 0 -1 -4 -3 -3
0 0 0 0 0 0 0 0 -1 -1 0 0 -1 -1 0 -1 -3 -19 0 0 0 0 0 -95 -57 -36 -9 0 0 0 0 0 0 -20 -18 -24 -22 -22 -18 -17 -17 -51 -33 -13 -22 -18 -10 -2 -2 -1 -2 -2 -2 -3
0 0 0 0 0 0 0 0 -1 0 0 0 0 -2 -1 0 -36 0 0 0 0 0 -17 -23 -5 -19 -19 -14 -6 -3 -2 -5 -5 -7 -9 -4 -5 -2 -12 -11 -12 -33 -58 -11 0 0 -21 -12 -3 -2 -3 -5 -5 -3
0 -1 0 0 0 0 0 -1 0 0 -1 0 0 0 0 0 0 0 0 0 0 0 0 0 0 -11 -2 -2 -2 -3 -3 -2 -3 -4 -4 -3 -3 -6 -6 -6 -11 -19 -27 0 0 0 0 0 0 0 0 0 0 0
0 0 0 0 0 -1 -1 -1 -1 -1 -1 0 0 0 0 0 0 0 0 0 0 0 0 0 -34 -16 -5 -2 -2 -3 -5 -7 -9 -11 -5 -7 -7 -7 -4 -11 -14 -17 -29 0 0 0 0 0 0 0 0 0 0 0
0 0 0 0 0 -2 -1 0 0 0 0 0 0 0 0 0 0 0 0 0 0 0 0 0 0 -2 -3 -2 -3 -5 -32 -11 -4 -11 -23 -9 -5 -7 -3 -8 -14 -16 -24 -29 0 0 0 0 0 0 0 0 -10 -5
0 0 0 0 0 0 0 0 0 0 0 0 0 0 0 0 0 0 0 0 0 0 -3 0 -20 -19 -29 -49 -30 -24 -6 -20 -35 0 -44 0 0 0 -90 -30 -16 -26 -20 -23 -13 -8 0 0 0 0 -3 -4 -3 -3
Wind_Speed
28 29 29 28 27 26 26 26 26 25 25 24 24 23 23 23 22 20 19 18 19 19 24 21 21 21 19 18 19 19 20 13 16 18 18 18 20 20 21 23 28 27 28 27 28 31 41 29 30 32 32 31 31 29
28 28 29 28 27 26 26 26 26 25 25 25 24 24 24 24 24 22 19 18 20 22 23 22 27 29 28 24 23 17 19 18 18 15 14 15 14 16 18 22 18 21 26 29 29 26 26 27 29 29 30 28 26 26
28 28 28 28 27 27 26 26 25 25 25 25 25 25 25 25 25 22 22 21 20 21 22 19 18 16 13 2 3 16 13 18 14 18 16 15 17 18 21 21 22 21 23 24 25 20 28 28 25 25 25 24 24 20
28 28 28 28 28 27 27 26 26 26 26 26 26 26 26 25 24 22 21 19 19 21 20 17 16 18 15 13 8 4 15 14 16 16 13 14 18 16 18 22 24 24 26 24 27 26 28 17 26 28 28 25 21 17
29 29 29 29 29 28 27 27 27 27 27 27 27 27 27 27 25 23 19 16 16 19 21 22 22 16 17 17 11 6 3 5 13 13 12 16 17 20 21 23 23 21 23 26 26 30 30 36 32 33 30 26 19 12
30 29 29 29 29 29 28 28 28 29 29 28 28 28 28 27 23 18 18 13 12 17 21 20 18 16 18 16 11 6 5 6 9 12 14 16 17 20 21 22 18 19 22 25 28 34 34 37 34 28 29 27 19 15
30 30 29 29 29 29 29 29 29 30 30 30 30 30 28 23 14 17 19 18 12 16 18 19 15 14 16 12 12 11 9 10 10 12 13 17 19 18 22 23 21 24 26 28 24 31 29 26 30 33 29 24 19 14
28 29 29 29 29 29 30 30 30 30 31 31 30 28 23 12 15 17 16 16 14 18 16 17 16 13 17 13 11 13 11 11 11 13 15 16 17 17 19 20 24 25 27 24 26 30 31 31 30 27 24 21 17 15
16 21 24 24 27 29 30 30 31 31 31 30 26 16 15 17 18 18 19 14 13 17 17 16 15 14 16 13 13 12 13 13 14 13 14 16 14 16 20 24 25 26 26 28 30 30 28 29 29 27 24 21 18 15
21 23 25 26 24 25 29 30 30 31 30 24 18 18 18 17 19 15 17 17 16 14 15 15 15 14 16 14 13 14 13 14 14 14 15 13 14 18 19 22 23 25 27 29 31 31 31 30 30 27 24 20 17 13
19 30 29 29 27 30 29 30 30 30 22 19 20 18 20 20 16 17 19 17 15 16 13 14 14 16 14 15 14 14 14 13 14 15 14 13 12 16 19 22 24 25 26 27 26 27 29 29 28 23 19 16 11 8
30 30 31 31 30 29 29 27 28 24 22 23 21 22 18 16 18 20 19 16 16 17 12 12 13 15 15 13 12 12 12 12 13 14 13 12 14 18 22 25 27 27 28 28 27 27 27 24 22 17 11 9 7 6
29 30 31 29 28 28 25 24 27 28 23 16 18 17 17 14 17 17 16 16 16 13 11 11 14 15 13 12 12 11 11 12 14 12 13 14 16 20 23 26 27 27 27 26 25 25 24 22 17 14 8 5 5 6
29 31 31 29 33 22 17 20 26 25 18 16 17 18 14 12 15 16 17 16 15 14 11 12 14 14 13 12 13 11 12 13 13 12 13 17 21 25 24 24 24 26 25 25 24 23 23 22 19 14 9 5 5 5
29 29 31 27 20 23 22 23 23 17 15 14 14 15 14 14 18 18 17 16 13 13 12 13 14 13 12 13 11 12 11 12 14 15 17 23 25 24 24 24 23 24 23 22 21 21 21 21 19 18 15 11 4 2
28 29 18 18 20 23 24 21 17 15 14 12 11 13 13 16 16 14 14 15 11 11 13 14 14 14 12 12 10 9 12 13 16 18 21 22 22 22 24 23 21 19 19 16 17 18 18 18 19 16 9 11 1 3
22 18 17 20 24 26 21 16 15 14 14 12 13 12 18 20 21 19 17 15 11 10 13 14 14 13 12 11 10 11 14 19 20 22 21 20 19 20 21 21 19 17 17 14 12 15 19 18 18 19 7 6 7 4
18 19 20 21 24 22 18 13 13 13 14 11 16 18 15 20 23 20 15 13 11 12 15 16 15 10 11 11 11 13 17 21 19 20 20 18 17 18 18 19 18 16 16 16 12 14 17 15 16 14 9 3 5 5
18 17 17 19 20 20 18 14 11 15 14 15 20 23 21 22 23 23 17 15 13 17 19 16 14 12 7 11 12 15 17 20 20 20 17 16 16 16 17 18 18 18 17 16 14 12 12 16 16 14 11 5 6 6
14 14 15 14 13 16 15 13 12 16 16 16 18 21 20 21 20 16 12 10 11 17 17 15 1 7 13 15 14 18 19 15 15 16 15 15 14 14 16 17 20 18 18 20 21 21 20 17 18 19 19 19 20 17
12 13 12 9 12 11 15 14 14 15 17 17 21 20 20 19 15 7 7 10 14 22 12 6 5 5 17 17 16 13 14 10 11 16 17 16 14 14 15 17 18 19 19 18 18 18 18 15 13 16 22 21 15 9
12 10 13 11 13 13 14 12 14 17 16 21 23 19 20 19 15 12 16 14 26 32 22 23 3 27 3 5 9 7 9 9 12 14 15 15 15 15 16 17 17 18 18 15 11 13 16 18 20 19 16 13 8 9
10 10 13 11 13 13 16 11 14 14 16 18 18 19 17 15 14 13 19 20 24 27 27 24 26 28 28 16 9 7 8 10 11 12 14 15 17 17 17 17 17 17 18 18 12 11 11 11 9 11 9 8 14 18
11 12 13 12 9 16 14 13 15 18 18 18 18 18 17 15 14 19 22 20 18 17 16 18 20 22 5 13 12 11 13 15 15 14 15 15 15 15 15 15 15 16 15 17 17 17 11 18 14 16 21 21 21 21
12 13 13 15 14 15 14 15 16 19 19 16 18 17 16 15 18 20 23 16 17 17 17 17 20 26 20 11 17 16 17 18 18 16 15 15 15 15 15 15 15 15 16 16 16 17 18 18 19 21 21 20 16 13
15 14 15 18 14 16 15 19 16 13 16 17 17 18 18 18 19 19 15 17 15 16 17 17 17 5 9 15 6 14 15 18 17 16 14 14 14 14 14 13 13 13 13 15 17 16 17 17 17 15 17 16 18 20
22 23 17 20 19 18 20 22 20 17 16 16 17 17 18 19 18 15 14 15 16 16 16 17 18 16 8 6 6 8 11 14 16 14 13 14 15 16 16 13 12 12 11 12 12 12 11 11 11 10 10 11 10 10
23 21 22 20 23 22 19 17 13 13 16 18 18 18 17 17 15 12 13 16 17 18 19 19 19 19 16 7 6 7 9 11 13 13 15 16 16 16 15 14 13 11 12 14 14 14 15 15 16 17 17 17 14 10
23 22 22 23 22 21 19 15 18 16 16 18 20 20 18 16 15 17 19 19 19 19 20 19 17 17 10 5 6 10 11 10 11 12 16 16 14 14 13 13 12 11 12 13 12 16 18 20 19 19 17 15 13 10
23 22 22 22 22 21 18 12 13 16 19 25 25 26 26 27 28 26 26 24 22 20 21 20 19 19 17 10 13 13 14 14 16 19 16 15 15 13 10 10 10 11 11 13 14 13 12 15 14 14 11 9 8 7
10 10 12 23 23 22 23 22 21 21 21 23 24 26 27 27 28 29 30 29 27 24 23 22 23 23 23 21 18 13 14 13 16 18 19 23 24 22 16 10 8 8 9 11 11 11 12 13 11 10 9 8 8 9
12 5 12 16 20 19 19 20 18 17 18 20 24 26 27 26 26 25 27 26 27 26 24 23 23 24 20 23 12 8 17 17 7 7 9 13 17 18 17 8 12 13 12 13 12 11 11 11 10 10 8 9 9 9
17 20 21 19 18 17 18 18 15 13 13 13 15 19 21 22 20 19 19 24 24 22 22 22 22 22 23 24 25 21 13 7 10 11 7 22 26 25 24 26 3 12 13 13 15 13 12 12 13 11 10 11 12 11
Wind_Direction
322 328 324 311 306 303 302 301 300 298 303 302 302 304 307 309 309 305 299 303 298 299 284 290 290 288 300 305 305 316 315 334 321 314 310 307 305 303 308 302 302 299 297 294 295 291 285 306 298 290 297 306 307 308
316 324 323 315 307 301 298 298 296 296 296 299 298 299 302 307 310 307 307 321 309 288 283 293 266 253 260 279 295 316 310 320 326 334 337 332 320 318 313 304 312 302 299 297 300 298 311 304 301 306 309 305 311 313
315 316 320 318 309 301 298 295 293 293 293 294 297 298 300 304 311 315 303 307 308 298 291 302 307 316 326 69 9 318 333 320 343 327 342 339 327 331 316 320 310 309 313 303 304 304 303 307 310 311 315 315 318 324
326 316 313 311 311 305 301 297 296 294 293 292 293 295 295 294 294 296 300 321 317 303 293 307 319 306 334 338 345 331 324 339 339 341 350 341 331 341 324 316 312 311 315 308 299 299 300 311 313 311 310 310 320 326
330 321 318 312 311 307 303 299 297 297 295 294 292 291 292 293 294 300 322 330 330 299 282 280 289 325 325 319 335 357 31 10 353 355 351 338 339 333 321 317 308 313 311 303 297 302 296 288 298 297 302 305 313 321
327 320 315 310 309 307 303 300 299 297 296 293 291 291 292 297 311 332 321 344 346 332 297 298 317 332 329 334 352 13 15 8 358 353 350 347 338 331 323 317 328 327 319 310 301 297 297 289 292 303 298 295 316 318
324 319 312 314 310 307 305 301 299 298 297 295 293 294 294 310 342 324 307 323 351 333 315 311 327 335 333 352 360 9 17 3 355 350 343 336 330 330 319 314 322 323 320 310 311 306 303 307 292 297 303 309 312 316
303 308 307 304 304 304 304 305 302 297 296 296 296 300 316 4 342 323 328 329 345 320 325 321 329 341 332 351 359 355 358 2 358 346 342 336 333 331 322 326 323 323 320 319 307 306 300 298 298 301 309 311 312 308
269 280 287 282 289 300 305 302 303 303 301 301 307 343 348 332 321 319 320 345 339 318 317 323 332 340 339 351 354 359 357 348 2 354 353 345 338 330 328 324 323 321 321 316 307 305 305 304 302 302 303 307 306 306
274 283 290 291 281 282 298 303 302 302 305 320 329 321 314 335 326 344 328 319 322 326 323 321 328 338 342 359 7 1 12 3 7 10 6 4 353 340 339 336 333 327 321 315 306 301 300 299 301 302 301 301 306 306
4 309 303 305 306 308 301 303 311 310 328 337 325 326 315 324 334 323 312 312 319 316 323 319 324 326 357 349 359 8 8 21 13 19 21 27 29 1 351 341 338 334 328 325 321 311 303 303 305 311 310 308 309 319
329 328 329 329 336 336 325 330 328 344 339 330 320 311 330 328 311 300 302 311 308 310 326 324 330 335 349 10 6 16 17 28 17 24 26 33 14 359 346 337 332 329 322 317 317 314 318 319 317 327 336 332 335 343
333 331 328 340 342 340 344 341 331 323 335 347 335 330 323 324 306 305 305 310 308 323 328 331 329 337 356 8 3 18 23 18 11 24 21 11 7 357 347 338 334 330 329 331 330 330 329 331 335 330 346 359 350 334
330 324 327 338 323 352 359 353 333 332 342 341 336 319 319 323 311 306 304 310 316 316 327 330 330 333 354 355 359 14 15 5 3 10 13 2 350 343 345 345 344 337 336 334 333 331 327 324 323 325 328 354 351 334
327 328 322 335 354 353 350 343 341 352 343 339 336 322 319 320 307 303 306 312 320 317 325 325 328 339 346 348 14 13 16 6 356 0 355 341 343 346 348 348 346 343 341 338 340 334 326 322 316 312 304 303 332 43
323 327 351 352 351 347 345 348 355 355 341 338 330 323 326 324 313 315 311 307 321 324 320 321 332 333 339 356 15 23 3 356 348 352 345 348 351 354 355 357 358 0 357 358 351 343 328 312 310 313 305 261 346 55
327 338 346 342 342 339 350 352 354 348 339 336 327 319 303 303 297 300 301 305 321 324 313 319 318 326 345 0 10 4 351 333 337 342 349 356 0 3 4 7 9 12 11 17 25 3 326 291 274 255 311 45 284 327
320 327 333 336 337 343 353 355 350 344 332 329 311 308 309 298 291 295 302 306 313 305 305 304 317 342 347 358 7 354 337 332 347 350 357 4 10 13 18 18 21 23 21 18 56 358 303 262 244 249 270 340 20 9
318 325 332 335 342 343 344 354 350 334 331 323 303 290 294 294 288 289 295 293 298 299 292 300 320 342 6 345 345 342 341 340 346 354 9 19 23 30 33 34 38 44 54 74 58 263 304 230 229 241 259 334 20 25
314 319 326 335 344 344 344 349 345 325 328 328 307 292 296 292 296 311 313 297 295 290 289 295 350 354 325 326 340 326 334 358 8 15 22 27 42 53 51 48 45 64 72 45 80 115 162 208 199 196 200 200 192 125
330 330 340 347 343 343 340 340 333 326 326 317 294 297 295 299 315 347 325 303 287 275 287 308 159 343 301 312 330 352 358 31 36 16 15 31 56 67 66 64 68 63 69 78 84 147 168 206 211 198 115 117 123 7
336 350 338 340 334 339 332 330 327 322 321 294 294 306 297 301 316 324 304 294 269 220 195 197 236 219 32 16 9 41 35 60 36 36 46 58 66 76 88 81 89 77 63 43 90 30 67 103 113 100 87 58 8 54
355 350 343 347 330 333 323 340 325 323 312 306 306 298 308 320 323 317 283 285 271 242 211 194 199 213 232 305 4 62 78 93 75 79 77 87 73 84 89 90 102 105 101 89 190 299 326 297 307 262 5 22 249 221
334 340 335 335 333 314 325 323 310 300 302 296 298 302 315 317 312 280 265 281 286 290 292 264 224 175 101 136 133 123 127 134 130 110 112 110 101 100 107 108 112 124 147 126 140 138 144 196 270 170 195 211 212 186
328 325 324 313 313 302 311 307 297 289 294 308 308 310 314 305 281 269 251 289 286 281 275 264 244 204 155 115 154 136 135 144 142 133 123 132 126 108 108 102 106 133 137 154 152 164 164 174 173 176 167 152 125 114
307 312 298 289 303 287 288 275 297 322 314 314 309 292 285 275 268 268 283 280 295 277 262 257 256 340 99 213 33 116 123 141 141 141 127 128 134 136 139 127 125 86 88 150 172 156 159 150 151 119 133 129 183 215
266 257 291 270 263 265 259 255 273 306 315 308 285 274 270 264 266 284 294 291 277 272 262 256 254 269 338 65 359 36 81 114 128 127 112 133 149 161 171 149 141 146 111 123 115 116 84 86 86 86 91 100 88 90
251 253 242 250 240 251 268 293 326 325 293 271 268 271 275 274 289 297 294 281 275 266 257 252 250 253 273 342 59 61 81 99 113 126 147 167 162 165 170 172 168 137 166 162 156 154 156 146 142 147 150 157 141 88
222 227 229 219 228 252 271 299 285 305 308 291 277 280 293 299 301 279 266 268 268 267 249 250 263 270 314 43 64 104 110 107 113 125 153 164 130 128 129 137 130 109 123 148 144 171 170 172 174 171 163 155 143 122
209 181 214 233 269 279 243 155 172 202 275 258 266 257 244 248 257 257 252 251 251 251 247 252 260 260 266 112 131 134 141 146 157 172 159 150 160 158 81 69 84 78 79 73 72 73 110 147 149 151 135 127 114 117
281 101 262 259 245 221 219 216 216 217 218 221 221 225 231 240 246 244 237 236 238 241 239 239 239 231 230 186 161 142 151 147 165 175 187 218 238 237 285 18 49 73 102 112 90 73 72 99 102 101 98 100 87 93
310 51 341 322 258 228 225 221 212 208 211 214 219 219 224 229 235 239 229 233 233 241 243 251 246 211 220 236 314 8 292 299 61 125 147 170 195 206 206 149 173 166 145 150 142 128 124 128 119 115 105 113 113 114
173 198 205 219 213 202 170 150 156 162 171 158 271 246 237 231 236 236 239 220 234 249 253 264 270 274 270 259 238 287 335 5 343 338 344 268 239 238 240 244 85 162 164 166 170 162 153 156 162 155 149 160 169 160